JILIN-01 GAOFEN 3E (46457 NORAD) Tracking and Keplerian Element Data
This shows tracking and keplerian element data for the satellite.
Feedback or suggestion? Click here.
Element | Value |
Catalog | 46457 |
Name | JILIN-01 GAOFEN 3E |
Epoch Orbit | 2024 |
Epoch Day | 27.24070844 |
Epoch Year | 2021 |
RAAN | 86.4157 |
Inclination | 97.5199 |
Eccentricity | 0.0013221 |
Argument of Perigee | 194.8939 |
Mean Anonmoly | 251.8685 |
Mean Motion | 15.0955061 |
Decay Rate | 9.22E-06 |
L1 | 1 46457U 20065D 21027.24070844 .00000922 00000-0 61301-4 0 9998 |
L2 | 2 46457 97.5199 86.4157 0013221 194.8939 251.8685 15.09550610 20246 |
Live tracking and technical data element details for JILIN-01 GAOFEN 3E (NORAD 46457). JILIN-01 GAOFEN 3E can be tracked NOW for your location showing map with azimuth and elevation plus other details from your city location.
Track the satellite on the map from your city or location and see movement details for azimuth, elevation, latitude, longitude, range, height, and movement on the map or in text.
IsCatalogInMostPopularTable: catalog: 46457, numindb: 60
Update: records affected: 1
GetName: 46457 JILIN-01 GAOFEN 3E
Hit Count: updated at: Thu, 28 Jan 2021 10:45:01 GMT